Tracking 19638 objects as of 21-May-2019
HD Live streaming from Space Station
objects crossing your sky now

OPTUS D1

Track OPTUS D1 now!
OPTUS D1 is classified as:


NORAD ID: 29495
Int'l Code: 2006-043B
Perigee: 35,778.0 km
Apogee: 35,810.4 km
Inclination: 0.0 °
Period: 1,436.1 minutes
Semi major axis: 42165 km
RCS: 0.003 m2 (small)
Launch date: October 13, 2006
Source: Australia (AUS)
Launch site: FRENCH GUIANA (FRGUI)

OPTUS D1 will provide fixed communications and satellite broadcast services over Australia and New Zealand
aabbcc
Your satellite tracking list
Your tracking list is empty




NASA's NSSDC Master Catalog

Two Line Element Set (TLE):
1 29495U 06043B   19139.83941771 -.00000121  00000-0  00000+0 0  9999
2 29495   0.0187 317.0992 0003837 105.4657 276.8257  1.00270058 46221
Source of the keplerian elements: AFSPC